TimeEDT,TemperatureF,Dew PointF,Humidity,Sea Level PressureIn,VisibilityMPH,Wind Direction,Wind SpeedMPH,Gust SpeedMPH,PrecipitationIn,Events,Conditions,WindDirDegrees,DateUTC
12:36 AM,73.4,73.4,100,30.10,10.0,Calm,Calm,-,N/A,,Scattered Clouds,0,2013-08-20 04:36:00
12:53 AM,73.0,72.0,96,30.09,10.0,East,3.5,-,N/A,,Partly Cloudy,80,2013-08-20 04:53:00
1:28 AM,73.4,73.4,100,30.09,10.0,Calm,Calm,-,N/A,,Partly Cloudy,0,2013-08-20 05:28:00
1:42 AM,73.4,73.4,100,30.09,10.0,NE,3.5,-,N/A,,Mostly Cloudy,40,2013-08-20 05:42:00
1:53 AM,73.0,73.0,100,30.08,10.0,Calm,Calm,-,N/A,,Mostly Cloudy,0,2013-08-20 05:53:00
2:53 AM,73.0,72.0,96,30.06,10.0,NNE,4.6,-,N/A,,Mostly Cloudy,30,2013-08-20 06:53:00
3:49 AM,73.4,73.4,100,30.07,10.0,NE,5.8,-,N/A,,Overcast,50,2013-08-20 07:49:00
3:53 AM,73.0,73.0,100,30.06,10.0,NE,5.8,-,N/A,,Overcast,50,2013-08-20 07:53:00
4:53 AM,73.0,73.0,100,30.06,10.0,East,5.8,-,N/A,,Overcast,80,2013-08-20 08:53:00
5:15 AM,73.4,71.6,94,30.07,10.0,ENE,4.6,-,N/A,,Overcast,60,2013-08-20 09:15:00
5:46 AM,73.4,71.6,94,30.07,10.0,NE,3.5,-,N/A,,Overcast,50,2013-08-20 09:46:00
5:53 AM,73.0,72.0,96,30.06,10.0,ENE,3.5,-,N/A,,Overcast,60,2013-08-20 09:53:00
6:53 AM,73.0,72.0,96,30.08,8.0,East,4.6,-,N/A,,Overcast,100,2013-08-20 10:53:00
7:28 AM,73.4,71.6,94,30.10,10.0,ENE,3.5,-,0.01,Rain,Light Rain,60,2013-08-20 11:28:00
7:53 AM,73.0,72.0,96,30.09,10.0,ENE,4.6,-,0.02,,Overcast,70,2013-08-20 11:53:00
8:17 AM,73.4,71.6,94,30.11,3.0,East,4.6,-,N/A,,Overcast,90,2013-08-20 12:17:00
8:53 AM,73.0,72.0,96,30.11,6.0,East,4.6,-,N/A,,Overcast,80,2013-08-20 12:53:00
9:53 AM,73.9,73.0,97,30.13,10.0,East,4.6,-,N/A,,Overcast,100,2013-08-20 13:53:00
10:53 AM,75.0,73.0,94,30.15,10.0,ESE,5.8,-,N/A,,Overcast,110,2013-08-20 14:53:00
11:53 AM,75.9,73.0,91,30.16,10.0,ESE,3.5,-,N/A,,Overcast,120,2013-08-20 15:53:00
12:00 PM,75.2,73.4,94,30.17,10.0,East,3.5,-,N/A,,Overcast,80,2013-08-20 16:00:00
12:32 PM,77.0,73.4,89,30.17,10.0,East,3.5,-,N/A,,Overcast,100,2013-08-20 16:32:00
12:53 PM,77.0,73.0,88,30.16,10.0,East,6.9,-,N/A,,Overcast,90,2013-08-20 16:53:00
1:53 PM,81.0,73.9,79,30.14,10.0,East,6.9,-,N/A,,Mostly Cloudy,80,2013-08-20 17:53:00
2:53 PM,82.9,73.9,74,30.10,10.0,East,3.5,-,N/A,,Mostly Cloudy,80,2013-08-20 18:53:00
3:53 PM,82.0,73.0,74,30.08,10.0,East,4.6,-,N/A,,Mostly Cloudy,80,2013-08-20 19:53:00
4:53 PM,80.1,75.9,87,30.08,8.0,North,4.6,-,0.02,Rain,Light Rain,360,2013-08-20 20:53:00
5:36 PM,78.8,75.2,89,30.10,5.0,Calm,Calm,-,0.06,Rain-Thunderstorm,Thunderstorms and Rain,0,2013-08-20 21:36:00
5:53 PM,80.1,77.0,90,30.08,10.0,NNE,5.8,-,0.08,Rain-Thunderstorm,Light Thunderstorms and Rain,30,2013-08-20 21:53:00
6:07 PM,80.6,75.2,84,30.10,10.0,East,6.9,-,0.00,,Mostly Cloudy,80,2013-08-20 22:07:00
6:53 PM,80.1,73.9,81,30.08,10.0,East,5.8,-,0.00,,Clear,90,2013-08-20 22:53:00
7:53 PM,77.0,73.9,90,30.10,10.0,ESE,4.6,-,N/A,,Clear,110,2013-08-20 23:53:00
8:53 PM,75.0,75.0,100,30.11,10.0,Calm,Calm,-,N/A,,Partly Cloudy,0,2013-08-21 00:53:00
9:53 PM,73.9,73.9,100,30.14,10.0,Calm,Calm,-,N/A,,Partly Cloudy,0,2013-08-21 01:53:00
10:49 PM,73.4,71.6,94,30.18,10.0,WSW,8.1,-,N/A,,Overcast,250,2013-08-21 02:49:00
10:53 PM,73.0,70.0,90,30.17,10.0,West,15.0,19.6,N/A,,Overcast,260,2013-08-21 02:53:00
11:53 PM,71.1,70.0,96,30.16,10.0,NE,4.6,-,0.03,,Overcast,50,2013-08-21 03:53:00